CZ-6A DEB, 56280

Orbit data source: Space-Track

CZ-6A DEB, 56280 is space debris in SSO originally from a launch on Fri, 11 Nov 2022 UTC launched from the Taiyaun Space Center, China (TSC). Debris objects in space refer to the collection of defunct objects orbiting the Earth. Examples of debris include non-operational satellites, rocket bodies, and fragments generated from explosions, collisions, or faulty payload assembly.

Loading next visibility...
Identifier
56280, 2022-151ACY
Orbit
SSO
Country
Flag of CNCN / PRC
Related business
Manufacturer
SAST
Mission
Spacecraft
Bus & Motor
Unknown
Mass
Unknown
Launch date (UTC)
2022-11-11 (3 years ago)
Launch vehicle
Unknown
Launch site
Taiyaun Space Center, China (TSC)
Object type
Payload
Rocket body
Debris
Shape & HBR
Unknown shape, 0.1 m
Radar Cross Section
Small (<0.1 m²)

Expand to show TLE details & history
Last TLE update: 1 day ago

TLE from 1 day ago
0 CZ-6A DEB
1 56280U 22151ACY 25349.39699692  .00000397  00000-0  28212-3 0  9995
2 56280  98.8614 328.2396 0101722 197.0780 162.6953 14.00781709140056
Epoch: 2025-12-15T09:31Z
TLE epoch observation values (Epoch: 2025-12-15T09:31:40.533Z)
Latitude
-0.00006°
Longitude
101.02457°
Altitude
964.649 km
Speed
7.334 km/s
True Right ascension
21h 52m 57s
True Declination
0° 00' 00"
Sunlit
Object was in daylight at epoch
Visualization orbit readout
Latitude
Unknown
Longitude
Unknown
Altitude
Unknown
Speed
Unknown
Apparent Right ascension
Unknown
Apparent Declination
Unknown
Sunlit
N/A
Visualization observer readout
Local Sidereal Time
11:31:50
Azimuth
Unknown
Elevation
Unknown
Doppler factor
Unknown
Orbital elements
Apogee altitude
962.196 km
Perigee altitude
814.365 km
Semi-major axis
7,266.418 km
Eccentricity
0.01017
Inclination
98.8614°
RAAN
328.2396°
Arg. of periapsis
197.078°
True anomaly
163.03786°
Mean anomaly
162.6953°
Eccentric anomaly
162.86699°
Mean motion
3.50399 °/min
Orbital period
102.74 mins
BSTAR
0.00028212
Loading maneuver chart data...
Computing Atmospheric mass density...
Loading historical data...
Loading historical data...
Loading historical data...
Loading historical data...
Loading historical data...
Loading historical data...
Loading historical data...

Documentation

Showing up to 5 results
|